www.pogodaiklimat.ru
ПОГОДА в Монтерее
Время
и дата
09:05 19.07
09:54 19.07
10:54 19.07
11:54 19.07
12:54 19.07
13:54 19.07
14:54 19.07
15:54 19.07
16:54 19.07
17:54 19.07
18:54 19.07
19:54 19.07
20:54 19.07
21:54 19.07
22:54 19.07
23:54 19.07
00:08 20.07
00:54 20.07
01:54 20.07
02:54 20.07
03:54 20.07
04:54 20.07
05:54 20.07
06:54 20.07
07:07 20.07
07:54 20.07
08:54 20.07
09:54 20.07
10:54 20.07
11:54 20.07
12:54 20.07
13:54 20.07
14:54 20.07
15:54 20.07
16:54 20.07
17:54 20.07
18:54 20.07
19:54 20.07
20:54 20.07
21:54 20.07
22:54 20.07
23:54 20.07
00:54 21.07
01:54 21.07
02:54 21.07
03:54 21.07
04:54 21.07
05:54 21.07
Ветер
(напр.,м/с)
Видим. Явления Облачность Т
(С)
Тd
(С)
f
(%)
Тe
(С)
Тes
(С)
Комфортность P
(гПа)
Po
(гПа)
Тmin
(С)
Tmax
(С)
R
(мм)
R24
(мм)
S
(см)
С 3 16 км 5/5 120 м +15.0 +12.2 83 +14 +19 1007.2
С 2 16 км 2/2 120 м +16.1 +12.2 78 +16 +26 1017.6 1007.2 +12.2 +16.1
С 3 16 км ясно +16.1 +12.2 78 +16 +29 опасность
простуды
1017.6 1007.2
СЗ 4 16 км ясно +16.7 +12.2 75 +16 +29 опасность
простуды
1017.4 1006.9
С 3 16 км ясно +18.3 +12.2 68 +19 +36 опасность
простуды
1017.2 1006.6
СЗ 4 16 км ясно +20.0 +12.8 63 +22 +35 комфорт 1016.8 1006.6
СЗ 3 16 км ясно +21.1 +12.2 57 +23 +37 комфорт 1016.2 1005.9
СЗ 5 16 км ясно +22.8 +11.1 48 +25 +32 комфорт 1015.3 1004.9 +15.6 +23.3
СЗ 4 16 км ясно +21.1 +11.1 53 +23 +28 комфорт 1015.1 1004.9
СЗ 4 16 км ясно +20.6 +11.1 54 +23 +25 комфорт 1015.5 1005.2
СЗ 4 16 км ясно +18.9 +11.1 61 +20 +20 1016.1 1005.5
З 3 16 км ясно +17.2 +11.7 70 +17 +17 1016.6 1006.2
З 4 16 км ясно +16.7 +11.7 72 +16 +16 1017.0 1006.6
ЮЗ 3 16 км ясно +15.6 +12.2 80 +15 +15 1017.3 1006.9 +15.6 +22.8
ЮЗ 4 16 км ясно +15.0 +12.2 83 +14 +14 1017.0 1006.6
ЮЗ 4 16 км 2/2 180 м +14.4 +12.2 87 +13 +13 1016.6 1006.2
З 5 16 км 8/8 180 м +14.4 +12.2 87 +13 +13 1006.2
З 3 16 км 10/10 120 м +13.9 +12.8 93 +13 +13 1016.4 1005.9
ЮЗ 4 14 км 10/10 90 м +13.3 +12.2 93 +12 +12 1015.9 1005.5
З 4 8 км дымка 10/10 90 м +13.3 +12.2 93 +12 +12 1015.8 1005.5
ЮЗ 3 13 км 10/10 90 м +13.3 +12.8 97 +12 +12 1015.9 1005.5 +13.3 +15.6
З 3 8 км дымка 10/10 120 м +13.9 +12.8 93 +13 +13 1015.8 1005.5
З 4 11 км 10/10 120 м +13.9 +12.8 93 +12 +12 1016.3 1005.9
З 4 8 км дымка 10/10 120 м +14.4 +12.8 90 +13 +13 1016.7 1006.2
З 4 16 км 10/10 150 м +14.4 +12.8 90 +13 +13 1006.6
З 4 11 км 10/10 150 м +14.4 +12.2 87 +13 +13 1017.1 1006.6
З 2 16 км 10/10 210 м +15.6 +12.8 83 +15 +15 1017.3 1006.9
З 5 11 км 8/8 210 м +15.6 +12.2 80 +14 +16 1017.5 1006.9 +13.3 +16.1
З 5 11 км 8/8 270 м +16.7 +12.2 75 +16 +18 1017.7 1007.2
З 5 16 км 8/8 270 м +16.7 +12.2 75 +16 +18 1017.8 1007.2
З 6 16 км 8/8 270 м +16.7 +12.2 75 +16 +17 1017.8 1007.2
З 5 16 км 8/8 270 м +16.1 +12.2 78 +15 +17 1017.6 1007.2
З 5 16 км 10/10 270 м +16.1 +12.2 78 +15 +15 1017.4 1006.9
З 6 16 км 8/8 270 м +16.1 +12.2 78 +15 +16 1017.1 1006.6 +15.6 +17.8
З 6 16 км 10/10 270 м +15.6 +12.2 80 +14 +14 1017.0 1006.6
З 5 16 км 8/8 270 м +15.6 +12.2 80 +14 +15 1017.2 1006.6
ЮЗ 3 16 км 8/8 270 м +15.0 +12.2 83 +14 +14 1017.5 1006.9
ЮЗ 4 16 км 8/8 270 м +14.4 +12.2 87 +13 +13 1017.8 1007.2
З 3 16 км 10/10 210 м +13.9 +12.2 89 +13 +13 1018.4 1007.9
ЮЗ 5 16 км 10/10 120 м +13.9 +12.2 89 +12 +12 1018.4 1007.9 +13.9 +16.1
З 4 11 км 10/10 90 м +13.3 +12.2 93 +12 +12 1018.4 1007.9
З 4 6 км дымка 10/10 60 м +13.3 +12.2 93 +12 +12 1018.3 1007.9
З 4 6 км дымка 10/10 60 м +13.3 +12.2 93 +12 +12 1018.0 1007.6
З 3 6 км дымка 10/10 90 м +13.3 +12.8 97 +12 +12 1017.7 1007.2
З 4 6 км дымка 10/10 120 м +12.8 +12.2 96 +11 +11 1017.4 1006.9
З 4 8 км дымка 10/10 90 м +12.8 +12.2 96 +11 +11 1017.4 1006.9 +12.8 +13.9
З 4 10 км дымка 10/10 90 м +12.8 +12.2 96 +11 +11 1017.6 1006.9
З 3 6 км дымка 10/10 90 м +12.8 +12.2 96 +11 +11 1017.9 1007.2
Местоположение метеостанции Monterey Peninsula Airport: широта 36.5906 долгота -121.8475 высота над уровнем моря 77 м.
В архиве по умолчанию представлена погода в Монтерее за последние 1-2 суток. Обновление информации о фактической погоде в базе происходит ежечасно! Архивные данные за месяц целиком и за предыдущие месяцы Вы можете получить, выбрав интересующий диапазон дат из раскрывающегося списка и нажав кнопку "Ввод!".
Внимание! Архив погоды МЕТАР в базе сайта по станциям, не включенным в климатический монитор, хранится не более 60 дней. Нет смысла пытаться выбрать более раннюю дату.
*Определитесь, кто Вы:
Внимание! Время в таблицах - местное (без учета летнего времени). Для получения всемирного времени необходимо вычесть поправку, которая равна -8 ч.
Смотрите также архив погоды в соседних городах и на ближайших метеорологических станциях:
Партнеры нашего сайта:      
Пояснения к столбцам:
  • Ветер - указаны скорость ветра в м/с - средняя за 10 мин, порывы в срок и между сроками (в фигурных скобках) и направление, откуда дует ветер: С - северный,
  • СВ - северо-восточный, В - восточный, ЮВ - юго-восточный, Ю - южный, ЮЗ - юго-западный, З - западный, СЗ - северо-западный.
  • Видимость - горизонтальная дальность видимости в метрах или километрах. При видимости от 1 до 10 км при отсутствии осадков обычно наблюдается дымка, при ухудшении видимости до 1 км и менее - туман. В сухую погоду видимость может ухудшаться дымом, пылью или мглою.
  • Явления - указаны атмосферные явления, наблюдавшиеся в срок или в последний час перед сроком; фигурными скобками обозначены явления, наблюдавшиеся между сроками (за 1-3 часа до срока); квадратными скобками обозначены град или гололедные отложения с указанием их диаметра в мм.
  • Облачность - указаны через наклонную черту общая и нижняя облачность в баллах и высота нижней границы облаков в метрах; квадратными скобками обозначены формы облаков: Ci - перистые, Cs - перисто-слоистые, Cc - перисто-кучевые, Ac - высококучевые, As - высокослоистые, Sc - слоисто-кучевые, Ns - слоисто-дождевые, Cu - кучевые, Cb - кучево-дождевые. Подробнее классификацию облаков см. в Атласе облаков (PDF).
  • T - Температура воздуха - температура, измеренная на высоте 2 м над землей.
  • Td - Температура точки росы - температура, при понижении до которой содержащийся в воздухе водяной пар достигнет насыщения.
  • f - Относительная влажность воздуха - влажноcть воздуха, измеренная на высоте 2 м над землей.
  • Te - Эффективная температура - температура, которую ощущает одетый по сезону человек в тени. Характеристика душности погоды. При расчете учитывается влияние влажности воздуха и скорости ветра на теплоощущения человека.
  • Tes - Эффективная температура на солнце - температура, которую ощущает человек, с поправкой на солнечный нагрев. Характеристика знойности погоды. Зависит от высоты солнца над горизонтом, облачности и скорости ветра. Ночью, в пасмурную погоду, а также при ветре 12 м/с и более поправка равна нулю.
  • P - Атмосферное давление - приведенное к уровню моря атмосферное давление.
  • Po - Атмосферное давление - измеренное на уровне метеостанции атмосферное давление.
  • Tmin - Минимальная температура - минимум температуры воздуха на высоте 2 м над землей.
  • Tmax - Максимальная температура - максимум температуры воздуха на высоте 2 м над землей.
  • R - Количество осадков - Количество выпавших осадков за период времени, мм. При наведении курсора мыши на число - период времени, за который выпало указанное количество осадков.
  • R24 - Количество осадков - Количество выпавших осадков за 24 часа, мм.
  • S - Снежный покров - Высота снежного покрова, см. При наведении курсора мыши на число - состояние снежного покрова и степень покрытия местности в баллах.